Tracking 30986 objects as of 9-Jul-2025
HD Live streaming from Space Station
objects crossing your sky now

SJ-23 AKM

Track SJ-23 AKM now!


NORAD ID: 55180
Int'l Code: 2023-002C
Perigee: 36,046.1 km
Apogee: 36,059.4 km
Inclination: 2.9 °
Period: 1,449.3 minutes
Semi major axis: 42423 km
RCS: Unknown
Launch date: January 8, 2023
Source: People's Republic of China (PRC)
Launch site: Wenchang Satellite Launch Center (WSC)

Note: This is a ROCKET BODY
Your satellite tracking list
Your tracking list is empty




NASA's NSSDC Master Catalog

Two Line Element Set (TLE):
1 55180U 23002C   25189.87198459  .00000113  00000-0  00000-0 0  9997
2 55180   2.8555  82.9102 0001568 266.7214 314.8075  0.99355052  8998
Source of the keplerian elements: AFSPC